STARLINK-11373, 61582

Orbit data source: Space-Track

STARLINK-11373, 61582 is a payload satellite owned by SpaceX/Seattle (US) in LEO that was launched on Fri, 18 Oct 2024 UTC via an FALCON 9 launch vehicle from the Air Force Eastern Test Range (AFETR). Payload-class satellites include a variety of spacecraft equipped with specific instruments for various scientific and technological missions. These include communications satellites like Starlink; space stations such as the ISS; scientific satellites like the Hubble; Earth observation satellites from companies like Planet Labs, Umbra, and HawkEye 360; GPS; miniature CubeSats for education and research; and military/defense satellites.

Loading next visibility...
Identifier
61582, 2024-187J
Orbit
LEO
Country
Flag of USUS
Related business
Manufacturer
SpaceX/Seattle
Mission
Operational Commercial Communications
Bus & Motor
STARLINK V2MD, Unknown motor
Mass
960 kg wet, ~910 kg dry
Launch date (UTC)
2024-10-18 (2 years ago)
Launch vehicle
FALCON 9
Launch site
Air Force Eastern Test Range (AFETR)
Object type
Payload
Rocket body
Debris
Shape & HBR
Box + 2 Pan, 18.1 m
Radar Cross Section
36.964 m², Large (>1 m²)

Expand to show TLE details & history
Last TLE update: 16 hours ago

TLE from 16 hours ago
0 STARLINK-11373
1 61582U 24187J   26171.18138768 -.00002278  00000-0 -13964-4 0  9991
2 61582  53.1600 151.3106 0001216  85.6212 274.4945 15.69689573 96841
Epoch: 2026-06-20T04:21Z
TLE epoch observation values (Epoch: 2026-06-20T04:21:11.895Z)
Latitude
-0.00001°
Longitude
177.61133°
Altitude
360.636 km
Speed
7.694 km/s
True Right ascension
10h 05m 14s
True Declination
0° 00' 00"
Sunlit
Object was in daylight at epoch
Visualization orbit readout
Latitude
Unknown
Longitude
Unknown
Altitude
Unknown
Speed
Unknown
Apparent Right ascension
Unknown
Apparent Declination
Unknown
Sunlit
N/A
Visualization observer readout
Local Sidereal Time
07:17:01
Azimuth
Unknown
Elevation
Unknown
Doppler factor
Unknown
Orbital elements
Apogee altitude
360.865 km
Perigee altitude
359.227 km
Semi-major axis
6,738.183 km
Eccentricity
0.00012
Inclination
53.16°
RAAN
151.3106°
Arg. of periapsis
85.6212°
True anomaly
274.48061°
Mean anomaly
274.4945°
Eccentric anomaly
274.48755°
Mean motion
3.924 °/min
Orbital period
91.74 mins
BSTAR
-0.000013964
Loading maneuver chart data...
Computing Atmospheric mass density...
Loading historical data...
Loading historical data...
Loading historical data...
Loading historical data...
Loading historical data...
Loading historical data...
Loading historical data...

Documentation

Showing up to 5 results
|